DECAYED

STARLINK-6339, 56771 (Decayed)

Orbit data source: Space-Track

STARLINK-6339, 56771 was a payload satellite owned by SpaceX/Seattle (US) in LEO that was launched on Wed, 31 May 2023 UTC via an FALCON 9 launch vehicle from the Air Force Western Test Range (AFWTR). Payload-class satellites include a variety of spacecraft equipped with specific instruments for various scientific and technological missions. These include communications satellites like Starlink; space stations such as the ISS; scientific satellites like the Hubble; Earth observation satellites from companies like Planet Labs, Umbra, and HawkEye 360; GPS; miniature CubeSats for education and research; and military/defense satellites.

Not visible in the next 10 days
Identifier
56771, 2023-078E
Orbit
Decayed
Country
Flag of USUS
Related business
Manufacturer
SpaceX/Seattle
Mission
Decayed Commercial Communications
Bus & Motor
STARLINK, Unknown motor
Mass
305 kg wet, ~290 kg dry
Launch date (UTC)
2023-05-31 (3 years ago)
Launch vehicle
FALCON 9
Launch site
Air Force Western Test Range (AFWTR)
Object type
Payload
Rocket body
Debris
Shape & HBR
Box + 1 Pan, 10.1 m
Radar Cross Section
11.087 m², Large (>1 m²)

Expand to show TLE details & history
Last TLE update: 1 year ago

TLE from 1 year ago
0 STARLINK-6339
1 56771U 23078E   25068.69894064  .16481208  44904-5  27271-3 0  9991
2 56771  69.9755 129.0505 0007749 254.3157 255.2858 16.47708447 99635
Epoch: 2025-03-09T16:46Z
TLE epoch observation values (Epoch: 2025-03-09T16:46:28.471Z)
Latitude
28.52774°
Longitude
-121.5547°
Altitude
149.777 km
Speed
7.819 km/s
True Right ascension
19h 50m 45s
True Declination
28° 22' 13"
Sunlit
Object was in daylight at epoch
Visualization orbit readout
Latitude
Unknown
Longitude
Unknown
Altitude
Unknown
Speed
Unknown
Apparent Right ascension
Unknown
Apparent Declination
Unknown
Sunlit
N/A
Visualization observer readout
Local Sidereal Time
21:28:56
Azimuth
Unknown
Elevation
Unknown
Doppler factor
Unknown
Orbital elements
Apogee altitude
148.247 km
Perigee altitude
138.14 km
Semi-major axis
6,521.33 km
Eccentricity
0.00077
Inclination
69.9755°
RAAN
129.0505°
Arg. of periapsis
254.3157°
True anomaly
255.19994°
Mean anomaly
255.2858°
Eccentric anomaly
255.24287°
Mean motion
4.12134 °/min
Orbital period
87.35 mins
BSTAR
0.00027271
Loading maneuver chart data...
Computing Atmospheric mass density...
Loading historical data...
Loading historical data...
Loading historical data...
Loading historical data...
Loading historical data...
Loading historical data...
Loading historical data...

Documentation

Showing up to 5 results
|